Tracking 20719 objects as of 24-May-2020
HD Live streaming from Space Station
objects crossing your sky now

SL-24 DEB

Track SL-24 DEB now!
10-day predictions


NORAD ID: 36601
Int'l Code: 2010-028D
Perigee: 726.3 km
Apogee: 749.2 km
Inclination: 98.4 °
Period: 99.4 minutes
Semi major axis: 7108 km
RCS: 5.771 m2 (large)
Launch date: June 15, 2010
Source: Commonwealth of Independent States (former USSR) (CIS)
Launch site: Orenburg, Russia (OREN)

Note: This is SATELLITE DEBRIS
aabbcc
Your satellite tracking list
Your tracking list is empty




NASA's NSSDC Master Catalog

Two Line Element Set (TLE):
1 36601U 10028D   20145.11913193 +.00000058 +00000-0 +27339-4 0  9998
2 36601 098.3909 332.7669 0016073 306.1608 053.8097 14.48479744524918
Source of the keplerian elements: AFSPC